AFA88 RCKH-RCFN

Flight info

Callsign AFA88
Flight time 1h 16m
Altitude 8000
Route HCN B591 GI DCT DULAN DCT ZN DCT
Aircraft DA42/L-SDFGRY/S

Departure

Time 2026-04-27 06:51
Airport Kaohsiung International Airport (RCKH)

Arrival

Time 2026-04-27 08:08
Airport Taitung Airport (RCFN)
Time Latitude Longitude Altitude Speed Heading
2026-04-27 06:35 22.57373 120.34702 33 ft 0 kts 92°
2026-04-27 06:45 22.57380 120.34700 33 ft 5 kts 259°
2026-04-27 06:45 22.57405 120.34613 33 ft 11 kts 359°
2026-04-27 06:45 22.57477 120.34615 33 ft 10 kts
2026-04-27 06:46 22.57537 120.34601 33 ft 8 kts 318°
2026-04-27 06:46 22.57553 120.34554 33 ft 4 kts 269°
2026-04-27 06:46 22.57556 120.34444 33 ft 22 kts 272°
2026-04-27 06:46 22.57560 120.34324 33 ft 21 kts 271°
2026-04-27 06:47 22.57566 120.34159 33 ft 15 kts 272°
2026-04-27 06:47 22.57568 120.34083 33 ft 15 kts 271°
2026-04-27 06:47 22.57572 120.33967 33 ft 15 kts 272°
2026-04-27 06:47 22.57576 120.33852 33 ft 15 kts 271°
2026-04-27 06:48 22.57579 120.33734 32 ft 16 kts 271°
2026-04-27 06:48 22.57583 120.33615 32 ft 15 kts 271°
2026-04-27 06:48 22.57593 120.33520 32 ft 17 kts 302°
2026-04-27 06:48 22.57646 120.33502 32 ft 0 kts
2026-04-27 06:49 22.57649 120.33502 32 ft 0 kts
2026-04-27 06:49 22.57712 120.33505 32 ft 15 kts
2026-04-27 06:50 22.57752 120.33571 32 ft 0 kts 91°
2026-04-27 06:50 22.57743 120.33855 34 ft 70 kts 92°
2026-04-27 06:51 22.57721 120.34509 153 ft 94 kts 93°
2026-04-27 06:51 22.57696 120.35207 413 ft 95 kts 92°
2026-04-27 06:51 22.57668 120.35981 766 ft 106 kts 91°
2026-04-27 06:51 22.57637 120.36787 1112 ft 106 kts 90°
2026-04-27 06:52 22.57569 120.37579 1386 ft 108 kts 113°
2026-04-27 06:52 22.57103 120.38134 1634 ft 102 kts 158°
2026-04-27 06:52 22.56439 120.38178 1672 ft 94 kts 197°
2026-04-27 06:52 22.55923 120.37761 1774 ft 92 kts 224°
2026-04-27 06:53 22.55464 120.37262 1997 ft 96 kts 225°
2026-04-27 06:53 22.54974 120.36728 2179 ft 108 kts 226°
2026-04-27 06:53 22.54434 120.36126 2414 ft 112 kts 225°
2026-04-27 06:53 22.53881 120.35518 2688 ft 113 kts 224°
2026-04-27 06:54 22.53324 120.34925 2977 ft 113 kts 221°
2026-04-27 06:54 22.52560 120.34558 3066 ft 128 kts 188°
2026-04-27 06:54 22.51728 120.34400 3456 ft 116 kts 188°
2026-04-27 06:54 22.50969 120.34166 3760 ft 114 kts 201°
2026-04-27 06:55 22.50205 120.34026 4050 ft 112 kts 169°
2026-04-27 06:55 22.49422 120.34137 4311 ft 114 kts 167°
2026-04-27 06:55 22.48640 120.34275 4574 ft 114 kts 167°
2026-04-27 06:55 22.47855 120.34422 4835 ft 115 kts 168°
2026-04-27 06:56 22.47077 120.34591 5103 ft 114 kts 164°
2026-04-27 06:56 22.46312 120.34821 5367 ft 114 kts 164°
2026-04-27 06:56 22.45534 120.35005 5644 ft 114 kts 171°
2026-04-27 06:56 22.44744 120.35162 5892 ft 116 kts 172°
2026-04-27 06:57 22.43955 120.35325 6168 ft 115 kts 173°
2026-04-27 06:57 22.43166 120.35490 6415 ft 116 kts 173°
2026-04-27 06:57 22.42373 120.35656 6660 ft 117 kts 172°
2026-04-27 06:57 22.41572 120.35826 6899 ft 118 kts 172°
2026-04-27 06:58 22.40766 120.35996 7151 ft 118 kts 173°
2026-04-27 06:58 22.39144 120.36340 7653 ft 120 kts 173°
2026-04-27 06:58 22.38415 120.36768 7912 ft 124 kts 139°
2026-04-27 06:59 22.37785 120.37478 7990 ft 140 kts 138°
2026-04-27 06:59 22.37064 120.38264 7998 ft 153 kts 139°
2026-04-27 06:59 22.36288 120.39088 8000 ft 160 kts 139°
2026-04-27 06:59 22.35481 120.39938 8005 ft 164 kts 139°
2026-04-27 07:00 22.34655 120.40805 8005 ft 167 kts 139°
2026-04-27 07:00 22.33816 120.41682 8005 ft 169 kts 139°
2026-04-27 07:00 22.32969 120.42567 8006 ft 170 kts 139°
2026-04-27 07:00 22.32117 120.43458 8009 ft 171 kts 139°
2026-04-27 07:01 22.31270 120.44342 8002 ft 172 kts 139°
2026-04-27 07:01 22.30399 120.45251 8005 ft 172 kts 139°
2026-04-27 07:01 22.29536 120.46152 8004 ft 173 kts 139°
2026-04-27 07:01 22.28684 120.47041 8007 ft 172 kts 139°
2026-04-27 07:02 22.27820 120.47941 8009 ft 173 kts 139°
2026-04-27 07:02 22.26955 120.48844 8008 ft 173 kts 139°
2026-04-27 07:02 22.26090 120.49746 8006 ft 173 kts 139°
2026-04-27 07:02 22.25224 120.50649 8004 ft 173 kts 139°
2026-04-27 07:03 22.24361 120.51548 8009 ft 172 kts 139°
2026-04-27 07:03 22.23498 120.52447 8013 ft 173 kts 139°
2026-04-27 07:03 22.22632 120.53350 8013 ft 173 kts 139°
2026-04-27 07:03 22.21768 120.54250 8013 ft 173 kts 139°
2026-04-27 07:04 22.20901 120.55153 8012 ft 173 kts 139°
2026-04-27 07:04 22.20032 120.56057 8017 ft 173 kts 139°
2026-04-27 07:04 22.19167 120.56958 8014 ft 173 kts 139°
2026-04-27 07:04 22.18299 120.57862 8013 ft 173 kts 139°
2026-04-27 07:05 22.17433 120.58764 8012 ft 173 kts 139°
2026-04-27 07:05 22.16568 120.59663 8015 ft 173 kts 139°
2026-04-27 07:05 22.15705 120.60562 8011 ft 172 kts 139°
2026-04-27 07:05 22.14844 120.61457 8014 ft 172 kts 139°
2026-04-27 07:06 22.13983 120.62353 8012 ft 172 kts 139°
2026-04-27 07:06 22.13119 120.63252 8016 ft 172 kts 139°
2026-04-27 07:06 22.12492 120.64341 8008 ft 176 kts 104°
2026-04-27 07:06 22.12474 120.65666 8012 ft 177 kts 87°
2026-04-27 07:07 22.12576 120.66974 8014 ft 178 kts 86°
2026-04-27 07:07 22.12688 120.68300 8013 ft 177 kts 86°
2026-04-27 07:07 22.12802 120.69626 8014 ft 178 kts 85°
2026-04-27 07:07 22.12919 120.70972 8015 ft 178 kts 86°
2026-04-27 07:08 22.13034 120.72288 8016 ft 180 kts 86°
2026-04-27 07:08 22.13155 120.73636 8017 ft 181 kts 86°
2026-04-27 07:08 22.13286 120.74997 8007 ft 183 kts 86°
2026-04-27 07:08 22.13403 120.76355 8012 ft 182 kts 86°
2026-04-27 07:09 22.13525 120.77712 8012 ft 182 kts 85°
2026-04-27 07:09 22.13641 120.79072 8007 ft 182 kts 86°
2026-04-27 07:09 22.13758 120.80428 8009 ft 181 kts 86°
2026-04-27 07:09 22.13875 120.81781 8006 ft 181 kts 85°
2026-04-27 07:10 22.13991 120.83125 8008 ft 180 kts 85°
2026-04-27 07:10 22.14101 120.84464 8000 ft 179 kts 86°
2026-04-27 07:10 22.14211 120.85795 8013 ft 179 kts 85°
2026-04-27 07:10 22.14330 120.87126 8009 ft 177 kts 85°
2026-04-27 07:11 22.14442 120.88445 8014 ft 177 kts 85°
2026-04-27 07:11 22.14707 120.89739 8006 ft 178 kts 61°
2026-04-27 07:11 22.15528 120.90731 8009 ft 178 kts 41°
2026-04-27 07:11 22.16459 120.91611 8006 ft 178 kts 39°
2026-04-27 07:12 22.17385 120.92506 8006 ft 179 kts 42°
2026-04-27 07:12 22.18269 120.93449 8006 ft 179 kts 45°
2026-04-27 07:12 22.19136 120.94409 8007 ft 179 kts 45°
2026-04-27 07:12 22.20004 120.95373 8010 ft 179 kts 45°
2026-04-27 07:13 22.20873 120.96336 8010 ft 180 kts 44°
2026-04-27 07:13 22.21751 120.97307 8006 ft 182 kts 44°
2026-04-27 07:13 22.22634 120.98284 8005 ft 182 kts 44°
2026-04-27 07:13 22.23516 120.99260 8008 ft 181 kts 45°
2026-04-27 07:14 22.24395 121.00235 8006 ft 182 kts 44°
2026-04-27 07:14 22.25267 121.01198 8006 ft 182 kts 44°
2026-04-27 07:14 22.26151 121.02175 8007 ft 182 kts 44°
2026-04-27 07:14 22.27034 121.03154 8007 ft 182 kts 44°
2026-04-27 07:15 22.27917 121.04133 8004 ft 182 kts 45°
2026-04-27 07:15 22.28798 121.05109 8003 ft 181 kts 45°
2026-04-27 07:15 22.29692 121.06101 8004 ft 182 kts 44°
2026-04-27 07:15 22.30566 121.07069 8003 ft 183 kts 44°
2026-04-27 07:16 22.31453 121.08052 8010 ft 182 kts 45°
2026-04-27 07:16 22.32340 121.09036 8011 ft 183 kts 44°
2026-04-27 07:16 22.33224 121.10018 8011 ft 182 kts 45°
2026-04-27 07:16 22.34109 121.10999 8009 ft 182 kts 44°
2026-04-27 07:17 22.34990 121.11977 8006 ft 181 kts 43°
2026-04-27 07:17 22.35868 121.12950 8005 ft 180 kts 44°
2026-04-27 07:17 22.36741 121.13921 8005 ft 180 kts 44°
2026-04-27 07:17 22.37611 121.14885 8004 ft 179 kts 44°
2026-04-27 07:18 22.38476 121.15847 8007 ft 179 kts 44°
2026-04-27 07:18 22.39342 121.16809 8005 ft 178 kts 43°
2026-04-27 07:18 22.40206 121.17768 8005 ft 178 kts 43°
2026-04-27 07:18 22.41067 121.18725 8006 ft 178 kts 44°
2026-04-27 07:19 22.41927 121.19680 8001 ft 177 kts 44°
2026-04-27 07:19 22.42785 121.20635 8000 ft 177 kts 44°
2026-04-27 07:19 22.43642 121.21587 8001 ft 177 kts 43°
2026-04-27 07:19 22.44502 121.22543 8001 ft 177 kts 43°
2026-04-27 07:20 22.45362 121.23499 8001 ft 178 kts 44°
2026-04-27 07:20 22.46222 121.24456 8002 ft 177 kts 44°
2026-04-27 07:20 22.47083 121.25413 8002 ft 178 kts 44°
2026-04-27 07:20 22.47947 121.26375 8003 ft 178 kts 43°
2026-04-27 07:21 22.48811 121.27337 8003 ft 178 kts 44°
2026-04-27 07:21 22.49677 121.28301 8003 ft 178 kts 44°
2026-04-27 07:21 22.50540 121.29262 8012 ft 179 kts 44°
2026-04-27 07:21 22.51407 121.30228 8010 ft 179 kts 44°
2026-04-27 07:22 22.52276 121.31196 8010 ft 179 kts 44°
2026-04-27 07:22 22.53146 121.32164 8009 ft 179 kts 44°
2026-04-27 07:22 22.54014 121.33132 8010 ft 179 kts 44°
2026-04-27 07:22 22.54882 121.34099 8010 ft 179 kts 44°
2026-04-27 07:23 22.55750 121.35066 8009 ft 179 kts 44°
2026-04-27 07:23 22.56620 121.36037 8011 ft 180 kts 44°
2026-04-27 07:23 22.57488 121.37005 8012 ft 179 kts 44°
2026-04-27 07:23 22.58351 121.37967 8011 ft 178 kts 44°
2026-04-27 07:24 22.59213 121.38929 8012 ft 178 kts 44°
2026-04-27 07:24 22.60073 121.39888 8010 ft 177 kts 44°
2026-04-27 07:24 22.60933 121.40846 8009 ft 177 kts 44°
2026-04-27 07:24 22.61773 121.41824 8011 ft 177 kts 45°
2026-04-27 07:25 22.62620 121.42793 8010 ft 177 kts 44°
2026-04-27 07:25 22.63482 121.43749 8010 ft 177 kts 43°
2026-04-27 07:25 22.64346 121.44701 8008 ft 177 kts 43°
2026-04-27 07:25 22.65198 121.45642 8004 ft 171 kts 43°
2026-04-27 07:26 22.66026 121.46537 8004 ft 166 kts 41°
2026-04-27 07:26 22.66832 121.47401 7996 ft 165 kts 41°
2026-04-27 07:26 22.67583 121.48339 7997 ft 165 kts 60°
2026-04-27 07:26 22.67856 121.49547 8014 ft 161 kts 76°
2026-04-27 07:27 22.68442 121.50523 7995 ft 153 kts 33°
2026-04-27 07:27 22.69402 121.50787 8007 ft 140 kts 354°
2026-04-27 07:27 22.70305 121.50780 8005 ft 116 kts 355°
2026-04-27 07:27 22.71015 121.50798 8007 ft 91 kts 355°
2026-04-27 07:28 22.71715 121.50808 7954 ft 113 kts 355°
2026-04-27 07:28 22.72563 121.50794 8015 ft 133 kts 353°
2026-04-27 07:28 22.73492 121.50731 8012 ft 129 kts 351°
2026-04-27 07:28 22.74292 121.50668 8007 ft 101 kts 351°
2026-04-27 07:29 22.74917 121.50636 8025 ft 81 kts 351°
2026-04-27 07:29 22.75530 121.50606 7892 ft 105 kts 350°
2026-04-27 07:29 22.76302 121.50693 8024 ft 126 kts 23°
2026-04-27 07:29 22.76770 121.51558 8029 ft 148 kts 93°
2026-04-27 07:30 22.76211 121.52422 7995 ft 143 kts 165°
2026-04-27 07:30 22.75271 121.52432 8073 ft 128 kts 189°
2026-04-27 07:30 22.74470 121.52399 8228 ft 104 kts 187°
2026-04-27 07:30 22.73761 121.52392 8356 ft 103 kts 188°
2026-04-27 07:31 22.73151 121.52404 8804 ft 85 kts 187°
2026-04-27 07:31 22.72452 121.52399 8935 ft 107 kts 189°
2026-04-27 07:31 22.71666 121.52359 9004 ft 118 kts 189°
2026-04-27 07:31 22.70868 121.52326 9075 ft 109 kts 191°
2026-04-27 07:32 22.70165 121.52331 9255 ft 99 kts 189°
2026-04-27 07:32 22.69544 121.52355 9330 ft 90 kts 192°
2026-04-27 07:32 22.68804 121.52330 9260 ft 107 kts 189°
2026-04-27 07:32 22.67906 121.52267 9013 ft 138 kts 188°
2026-04-27 07:33 22.67298 121.52125 9000 ft 135 kts 226°
2026-04-27 07:33 22.67898 121.51526 9038 ft 153 kts 42°
2026-04-27 07:33 22.67702 121.52441 9001 ft 144 kts 175°
2026-04-27 07:33 22.66918 121.52925 8982 ft 156 kts 89°
2026-04-27 07:34 22.67335 121.53458 8985 ft 148 kts
2026-04-27 07:34 22.67657 121.52770 8982 ft 137 kts 219°
2026-04-27 07:34 22.66690 121.52636 9019 ft 142 kts 187°
2026-04-27 07:34 22.65741 121.52719 9015 ft 133 kts 175°
2026-04-27 07:35 22.64841 121.52892 9042 ft 132 kts 174°
2026-04-27 07:35 22.63975 121.53265 9173 ft 138 kts 148°
2026-04-27 07:35 22.63357 121.54073 9223 ft 144 kts 118°
2026-04-27 07:35 22.63166 121.55138 9228 ft 146 kts 88°
2026-04-27 07:36 22.63272 121.56218 9201 ft 141 kts 85°
2026-04-27 07:36 22.63316 121.57245 9073 ft 135 kts 99°
2026-04-27 07:36 22.62948 121.58144 8992 ft 129 kts 135°
2026-04-27 07:36 22.62206 121.58588 8997 ft 121 kts 176°
2026-04-27 07:37 22.61395 121.58705 9024 ft 112 kts 177°
2026-04-27 07:37 22.60650 121.58827 9007 ft 104 kts 177°
2026-04-27 07:37 22.59994 121.58661 9002 ft 95 kts 219°
2026-04-27 07:37 22.59653 121.58087 9006 ft 92 kts 258°
2026-04-27 07:38 22.59791 121.57419 9005 ft 96 kts 299°
2026-04-27 07:38 22.60374 121.57037 8999 ft 105 kts 342°
2026-04-27 07:38 22.61140 121.57058 9000 ft 118 kts 356°
2026-04-27 07:38 22.62026 121.57086 9014 ft 130 kts 357°
2026-04-27 07:39 22.62954 121.57111 9029 ft 140 kts 356°
2026-04-27 07:39 22.63963 121.57117 9004 ft 143 kts 356°
2026-04-27 07:39 22.64967 121.57113 8272 ft 150 kts 354°
2026-04-27 07:39 22.66042 121.57074 7377 ft 158 kts 353°
2026-04-27 07:40 22.67124 121.57041 6675 ft 151 kts 353°
2026-04-27 07:40 22.68156 121.57000 5846 ft 148 kts 353°
2026-04-27 07:40 22.69213 121.56922 5049 ft 161 kts 351°
2026-04-27 07:40 22.70296 121.56747 4997 ft 157 kts 334°
2026-04-27 07:41 22.71014 121.55927 5014 ft 153 kts 289°
2026-04-27 07:41 22.71005 121.54813 5054 ft 151 kts 250°
2026-04-27 07:41 22.70306 121.53957 5010 ft 159 kts 211°
2026-04-27 07:41 22.69227 121.53736 5013 ft 163 kts 175°
2026-04-27 07:42 22.68201 121.54258 5018 ft 169 kts 140°
2026-04-27 07:42 22.67619 121.55361 5016 ft 173 kts 103°
2026-04-27 07:42 22.67708 121.56644 5014 ft 173 kts 67°
2026-04-27 07:42 22.68472 121.57600 5013 ft 169 kts 27°
2026-04-27 07:43 22.69586 121.57808 5011 ft 163 kts 346°
2026-04-27 07:43 22.70563 121.57258 5017 ft 158 kts 320°
2026-04-27 07:43 22.71269 121.56389 5014 ft 154 kts 289°
2026-04-27 07:43 22.71654 121.55316 5017 ft 154 kts 294°
2026-04-27 07:44 22.72138 121.54284 5020 ft 154 kts 294°
2026-04-27 07:44 22.72598 121.53249 5018 ft 149 kts 293°
2026-04-27 07:44 22.73028 121.52251 5014 ft 143 kts 293°
2026-04-27 07:44 22.73437 121.51285 5012 ft 139 kts 294°
2026-04-27 07:45 22.73725 121.50298 5008 ft 137 kts 275°
2026-04-27 07:45 22.73789 121.49269 5007 ft 136 kts 274°
2026-04-27 07:45 22.73855 121.48246 5007 ft 135 kts 274°
2026-04-27 07:45 22.73921 121.47222 4942 ft 139 kts 274°
2026-04-27 07:46 22.73987 121.46189 4815 ft 137 kts 274°
2026-04-27 07:46 22.74053 121.45167 4681 ft 136 kts 274°
2026-04-27 07:46 22.74117 121.44160 4545 ft 136 kts 274°
2026-04-27 07:46 22.74181 121.43140 4409 ft 136 kts 274°
2026-04-27 07:47 22.74246 121.42118 4271 ft 136 kts 274°
2026-04-27 07:47 22.74311 121.41087 4134 ft 138 kts 274°
2026-04-27 07:47 22.74377 121.40049 3995 ft 139 kts 274°
2026-04-27 07:47 22.74443 121.39003 3854 ft 139 kts 274°
2026-04-27 07:48 22.74508 121.37983 3836 ft 131 kts 274°
2026-04-27 07:48 22.74568 121.37009 3838 ft 133 kts 274°
2026-04-27 07:48 22.74631 121.35984 3843 ft 140 kts 274°
2026-04-27 07:48 22.74700 121.34915 3846 ft 144 kts 274°
2026-04-27 07:49 22.74769 121.33834 3846 ft 142 kts 274°
2026-04-27 07:49 22.74836 121.32774 3846 ft 140 kts 274°
2026-04-27 07:49 22.74907 121.31725 3842 ft 140 kts 274°
2026-04-27 07:49 22.74982 121.30670 3700 ft 141 kts 274°
2026-04-27 07:50 22.75057 121.29604 3519 ft 143 kts 274°
2026-04-27 07:50 22.75132 121.28529 3329 ft 142 kts 274°
2026-04-27 07:50 22.75204 121.27485 3143 ft 135 kts 274°
2026-04-27 07:50 22.75274 121.26471 2967 ft 134 kts 274°
2026-04-27 07:51 22.75343 121.25464 2795 ft 134 kts 274°
2026-04-27 07:51 22.75411 121.24467 2635 ft 130 kts 273°
2026-04-27 07:51 22.75483 121.23538 2472 ft 120 kts 275°
2026-04-27 07:51 22.75570 121.22661 2293 ft 117 kts 274°
2026-04-27 07:52 22.75647 121.21808 2114 ft 110 kts 272°
2026-04-27 07:52 22.75701 121.20991 1933 ft 109 kts 269°
2026-04-27 07:52 22.75721 121.20177 1764 ft 109 kts 268°
2026-04-27 07:52 22.75749 121.19372 1670 ft 107 kts 270°
2026-04-27 07:53 22.75791 121.18573 1517 ft 105 kts 274°
2026-04-27 07:53 22.75858 121.17794 1409 ft 103 kts 275°
2026-04-27 07:53 22.75915 121.17018 1257 ft 105 kts 273°
2026-04-27 07:53 22.75995 121.16231 1107 ft 104 kts 275°
2026-04-27 07:54 22.76039 121.15448 987 ft 104 kts 271°
2026-04-27 07:54 22.76087 121.14653 832 ft 106 kts 272°
2026-04-27 07:54 22.76155 121.13853 719 ft 107 kts 266°
2026-04-27 07:54 22.75854 121.13155 712 ft 104 kts 221°
2026-04-27 07:55 22.75271 121.12708 713 ft 102 kts 213°
2026-04-27 07:55 22.74707 121.12263 694 ft 97 kts 216°
2026-04-27 07:55 22.74192 121.11821 722 ft 94 kts 218°
2026-04-27 07:55 22.73678 121.11385 713 ft 94 kts 217°
2026-04-27 07:56 22.73170 121.10963 725 ft 90 kts 215°
2026-04-27 07:56 22.72683 121.10545 716 ft 90 kts 217°
2026-04-27 07:56 22.72182 121.10127 745 ft 95 kts 217°
2026-04-27 07:56 22.71666 121.09684 712 ft 95 kts 230°
2026-04-27 07:57 22.71537 121.08982 725 ft 102 kts 292°
2026-04-27 07:57 22.71997 121.08410 715 ft 100 kts 325°
2026-04-27 07:57 22.72530 121.07925 740 ft 102 kts 331°
2026-04-27 07:57 22.73198 121.07924 697 ft 102 kts 40°
2026-04-27 07:58 22.73643 121.08515 490 ft 101 kts 47°
2026-04-27 07:58 22.74160 121.09009 414 ft 94 kts 46°
2026-04-27 07:58 22.74677 121.09406 475 ft 92 kts 47°
2026-04-27 07:58 22.75171 121.09827 708 ft 89 kts 48°
2026-04-27 07:59 22.75658 121.10257 798 ft 95 kts 49°
2026-04-27 07:59 22.76663 121.11133 1023 ft 93 kts 43°
2026-04-27 07:59 22.77315 121.11127 1146 ft 104 kts 328°
2026-04-27 08:00 22.77678 121.10443 1126 ft 112 kts 269°
2026-04-27 08:00 22.77320 121.09736 1134 ft 109 kts 216°
2026-04-27 08:00 22.76728 121.09171 1138 ft 117 kts 218°
2026-04-27 08:00 22.76155 121.08584 1146 ft 114 kts 218°
2026-04-27 08:01 22.75566 121.08009 1152 ft 111 kts 218°
2026-04-27 08:01 22.74978 121.07471 1154 ft 112 kts 218°
2026-04-27 08:01 22.74419 121.06925 1127 ft 106 kts 218°
2026-04-27 08:01 22.73731 121.06737 1064 ft 104 kts 161°
2026-04-27 08:02 22.73218 121.07229 932 ft 95 kts 125°
2026-04-27 08:02 22.73109 121.07922 821 ft 101 kts 73°
2026-04-27 08:02 22.73556 121.08509 585 ft 99 kts 38°
2026-04-27 08:02 22.74111 121.08967 326 ft 99 kts 42°
2026-04-27 08:03 22.74636 121.09426 203 ft 96 kts 44°
2026-04-27 08:03 22.75091 121.09823 144 ft 67 kts 38°
2026-04-27 08:03 22.75492 121.10169 172 ft 89 kts 45°
2026-04-27 08:03 22.75990 121.10600 452 ft 94 kts 44°
2026-04-27 08:04 22.76499 121.11049 746 ft 99 kts 41°
2026-04-27 08:04 22.77166 121.11187 1103 ft 103 kts 341°
2026-04-27 08:04 22.77754 121.10609 1151 ft 128 kts 294°
2026-04-27 08:04 22.77757 121.09663 1142 ft 129 kts 243°
2026-04-27 08:05 22.77152 121.08977 1132 ft 128 kts 216°
2026-04-27 08:05 22.76449 121.08386 1151 ft 127 kts 216°
2026-04-27 08:05 22.75769 121.07796 1131 ft 125 kts 219°
2026-04-27 08:05 22.75136 121.07184 1143 ft 113 kts 219°
2026-04-27 08:06 22.74557 121.06641 1126 ft 108 kts 215°
2026-04-27 08:06 22.73847 121.06505 1085 ft 107 kts 161°
2026-04-27 08:06 22.73284 121.06979 1094 ft 97 kts 134°
2026-04-27 08:06 22.73080 121.07631 972 ft 96 kts 85°
2026-04-27 08:07 22.73359 121.08300 794 ft 101 kts 52°
2026-04-27 08:07 22.73871 121.08770 547 ft 94 kts 40°
2026-04-27 08:07 22.74396 121.09219 195 ft 93 kts 43°
2026-04-27 08:07 22.74837 121.09600 147 ft 53 kts 40°
2026-04-27 08:08 22.74905 121.09659 146 ft 0 kts 38°
2026-04-27 08:08 22.75023 121.09763 145 ft 55 kts 38°
2026-04-27 08:08 22.75459 121.10135 197 ft 94 kts 40°
2026-04-27 08:08 22.75984 121.10578 478 ft 96 kts 43°
2026-04-27 08:09 22.76511 121.11035 723 ft 102 kts 43°
2026-04-27 08:09 22.77189 121.11233 1031 ft 107 kts 347°
2026-04-27 08:09 22.77753 121.10704 1165 ft 125 kts 292°
2026-04-27 08:09 22.77721 121.09756 1140 ft 129 kts 240°
2026-04-27 08:10 22.77103 121.09068 1135 ft 130 kts 218°
2026-04-27 08:10 22.76403 121.08463 1155 ft 129 kts 217°
2026-04-27 08:10 22.75700 121.07865 1131 ft 124 kts 217°
2026-04-27 08:10 22.75040 121.07313 1139 ft 119 kts 215°
2026-04-27 08:11 22.74384 121.06768 1123 ft 116 kts 213°
2026-04-27 08:11 22.73666 121.06666 1059 ft 102 kts 155°
2026-04-27 08:11 22.73148 121.07171 886 ft 103 kts 122°
2026-04-27 08:11 22.73116 121.07886 757 ft 98 kts 68°
2026-04-27 08:12 22.73555 121.08496 567 ft 105 kts 39°
2026-04-27 08:12 22.74110 121.08969 354 ft 101 kts 43°
2026-04-27 08:12 22.74652 121.09430 615 ft 101 kts 44°
2026-04-27 08:12 22.75195 121.09890 1028 ft 96 kts 43°
2026-04-27 08:13 22.75734 121.10353 1202 ft 115 kts 40°
2026-04-27 08:13 22.76411 121.10962 1136 ft 130 kts 41°
2026-04-27 08:13 22.77195 121.11401 1132 ft 132 kts
2026-04-27 08:13 22.78059 121.11112 1163 ft 132 kts 321°
2026-04-27 08:14 22.78503 121.10261 1127 ft 131 kts 273°
2026-04-27 08:14 22.78229 121.09383 1145 ft 126 kts 221°
2026-04-27 08:14 22.77505 121.08827 1130 ft 128 kts 212°
2026-04-27 08:14 22.76768 121.08304 1126 ft 127 kts 211°
2026-04-27 08:15 22.76028 121.07788 1171 ft 125 kts 213°
2026-04-27 08:15 22.75309 121.07244 1112 ft 119 kts 212°
2026-04-27 08:15 22.74651 121.06799 1113 ft 108 kts 207°
2026-04-27 08:15 22.73958 121.06742 1030 ft 102 kts 154°
2026-04-27 08:16 22.73439 121.07219 892 ft 95 kts 135°
2026-04-27 08:16 22.73109 121.07804 740 ft 97 kts 99°
2026-04-27 08:16 22.73356 121.08464 580 ft 99 kts 35°
2026-04-27 08:16 22.73955 121.08840 386 ft 100 kts 41°
2026-04-27 08:17 22.74494 121.09304 229 ft 97 kts 41°
2026-04-27 08:17 22.74994 121.09737 145 ft 78 kts 42°
2026-04-27 08:17 22.75444 121.10121 234 ft 90 kts 41°
2026-04-27 08:17 22.75958 121.10557 479 ft 96 kts 44°
2026-04-27 08:18 22.76493 121.11014 714 ft 105 kts 43°
2026-04-27 08:18 22.77124 121.11381 1063 ft 104 kts
2026-04-27 08:18 22.77865 121.11109 1149 ft 129 kts 319°
2026-04-27 08:18 22.78265 121.10244 1127 ft 132 kts 269°
2026-04-27 08:19 22.77922 121.09366 1071 ft 130 kts 218°
2026-04-27 08:19 22.77202 121.08794 1147 ft 130 kts 214°
2026-04-27 08:19 22.76488 121.08234 1148 ft 124 kts 213°
2026-04-27 08:19 22.75797 121.07695 1145 ft 117 kts 213°
2026-04-27 08:20 22.75161 121.07228 1120 ft 106 kts 208°
2026-04-27 08:20 22.74520 121.06780 1134 ft 108 kts 201°
2026-04-27 08:20 22.73827 121.06800 1044 ft 101 kts 148°
2026-04-27 08:20 22.73336 121.07289 924 ft 89 kts 135°
2026-04-27 08:21 22.73179 121.07924 778 ft 95 kts 78°
2026-04-27 08:21 22.73559 121.08503 566 ft 95 kts 46°
2026-04-27 08:21 22.74083 121.08947 350 ft 95 kts 45°
2026-04-27 08:21 22.74602 121.09397 216 ft 96 kts 42°
2026-04-27 08:22 22.75054 121.09789 145 ft 63 kts 38°
2026-04-27 08:22 22.75335 121.10032 141 ft 43 kts 39°
2026-04-27 08:22 22.75532 121.10200 142 ft 30 kts 39°
2026-04-27 08:22 22.75632 121.10286 141 ft 25 kts 38°
2026-04-27 08:23 22.75753 121.10391 141 ft 20 kts 39°
2026-04-27 08:23 22.75869 121.10344 138 ft 14 kts
2026-04-27 08:23 22.75942 121.10349 141 ft 10 kts 310°
2026-04-27 08:23 22.75955 121.10298 141 ft 4 kts 292°
2026-04-27 08:24 22.75964 121.10298 141 ft 0 kts 37°